Weather History for Patuxent River, MD

Change the Weather History Date:

Monday, April 29, 2013

  Actual Average Record
Temperature  
Mean Temperature 57 °F -  
Max Temperature 59 °F 68 °F 85 °F (1981)
Min Temperature 55 °F 50 °F 38 °F (1982)
Degree Days  
Heating Degree Days 8    
Growing Degree Days 7 (Base 50)    
Moisture  
Dew Point 54 °F    
Average Humidity 90    
Maximum Humidity 94    
Minimum Humidity 87    
Precipitation  
Precipitation 1.24 in - - ()
Sea Level Pressure  
Sea Level Pressure 30.10 in    
Wind  
Wind Speed 8 mph (ESE)    
Max Wind Speed 14 mph    
Max Gust Speed 23 mph    
Visibility 4 miles    
Events Rain    
Averages and records for this station are not official NWS values.
T = Trace of Precipitation, MM = Missing Value Source: NWS Daily Summary

Daily Weather History Graph

Daily Weather History Graph

Search for Another Location

Airport:

Trip Planner

Search our weather history database for the weather conditions in past years. The results will help you decide how hot, cold, wet, or windy it might be!

Date:

Astronomy

Apr. 29, 2013 Rise Set
Actual Time 6:11 AM EDT 7:55 PM EDT
Civil Twilight 5:42 AM EDT 8:23 PM EDT
Nautical Twilight 5:08 AM EDT 8:58 PM EDT
Astronomical Twilight 4:32 AM EDT 9:34 PM EDT
Moon No Moon Rise 9:30 AM EDT (4/29)
Length of Visible Light 14h 41m
Length of Day
13h 44m
Waning Gibbous, 80% of the Moon is Illuminated
Apr 29
Waning Gibbous
May 2
Last Quarter
May 9
New
May 18
First Quarter
May 25
Full

Hourly Weather History & Observations

Time (EDT) Temp. Dew Point Humidity Pressure Visibility Wind Dir Wind Speed Gust Speed Precip Events Conditions
12:52 AM 55.9 °F 52.0 °F 87% 30.17 in 6.0 mi SE 6.9 mph - 0.04 in Rain Light Rain
1:29 AM 55.4 °F 51.8 °F 88% 30.17 in 7.0 mi SE 6.9 mph - 0.03 in Rain Light Rain
1:52 AM 55.9 °F 52.0 °F 87% 30.17 in 9.0 mi ESE 6.9 mph - 0.03 in   Overcast
2:38 AM 55.4 °F 53.6 °F 94% 30.16 in 4.0 mi South 3.5 mph - 0.04 in Rain Light Rain
2:52 AM 55.9 °F 53.1 °F 90% 30.15 in 5.0 mi Calm Calm - 0.05 in Rain Light Rain
3:52 AM 55.9 °F 53.1 °F 90% 30.13 in 4.0 mi ESE 4.6 mph - 0.04 in Rain Rain
4:52 AM 55.0 °F 52.0 °F 89% 30.11 in 6.0 mi East 3.5 mph - 0.09 in Rain Light Rain
5:11 AM 55.4 °F 51.8 °F 88% 30.11 in 6.0 mi East 5.8 mph - 0.02 in Rain Light Rain
5:13 AM 55.4 °F 51.8 °F 88% 30.11 in 7.0 mi East 5.8 mph - 0.02 in Rain Light Rain
5:52 AM 55.9 °F 53.1 °F 90% 30.11 in 5.0 mi East 8.1 mph - 0.07 in Rain Light Rain
6:52 AM 57.0 °F 54.0 °F 89% 30.12 in 4.0 mi ESE 10.4 mph - N/A Rain Light Rain
7:52 AM 57.9 °F 55.0 °F 90% 30.12 in 3.0 mi ESE 9.2 mph - 0.07 in Rain Light Rain
8:52 AM 59.0 °F 55.9 °F 90% 30.12 in 4.0 mi SE 10.4 mph - 0.05 in Rain Light Rain
9:52 AM 59.0 °F 55.0 °F 87% 30.11 in 5.0 mi SE 8.1 mph - 0.04 in Rain Light Rain
10:52 AM 57.9 °F 55.0 °F 90% 30.11 in 5.0 mi SE 12.7 mph 20.7 mph 0.04 in Rain Light Rain
11:52 AM 57.0 °F 54.0 °F 89% 30.11 in 3.0 mi SE 13.8 mph 21.9 mph 0.12 in Rain Light Rain
12:52 PM 57.0 °F 55.0 °F 93% 30.09 in 2.5 mi ESE 12.7 mph - 0.18 in Rain Rain
1:52 PM 57.9 °F 55.0 °F 90% 30.09 in 2.0 mi SE 10.4 mph 20.7 mph 0.13 in Rain Light Rain
2:52 PM 57.0 °F 54.0 °F 89% 30.08 in 1.2 mi ESE 12.7 mph 21.9 mph 0.11 in Rain Light Rain
3:52 PM 55.9 °F 54.0 °F 93% 30.07 in 1.0 mi ESE 9.2 mph 19.6 mph 0.08 in Rain Rain
4:52 PM 57.0 °F 53.1 °F 87% 30.05 in 1.0 mi East 13.8 mph 23.0 mph 0.02 in Rain Light Rain
5:52 PM 55.9 °F 53.1 °F 90% 30.05 in 1.0 mi East 12.7 mph 19.6 mph 0.03 in Rain Light Rain
6:52 PM 57.0 °F 54.0 °F 89% 30.05 in 1.0 mi East 11.5 mph - 0.01 in Rain Light Rain
7:52 PM 57.0 °F 54.0 °F 89% 30.05 in 1.0 mi East 11.5 mph 18.4 mph 0.02 in Rain Light Rain
8:52 PM 57.0 °F 54.0 °F 89% 30.06 in 2.0 mi East 9.2 mph - 0.02 in Rain Light Rain
9:52 PM 55.9 °F 54.0 °F 93% 30.08 in 2.0 mi East 9.2 mph - 0.00 in Rain Light Rain
10:13 PM 55.4 °F 53.6 °F 94% 30.08 in 3.0 mi East 9.2 mph - 0.00 in   Overcast
10:52 PM 55.9 °F 54.0 °F 93% 30.08 in 3.0 mi East 11.5 mph - 0.00 in Rain Light Rain
11:06 PM 55.4 °F 53.6 °F 94% 30.08 in 2.0 mi East 9.2 mph - 0.00 in   Overcast
11:30 PM 55.4 °F 53.6 °F 94% 30.08 in 2.0 mi East 9.2 mph - 0.00 in   Overcast
11:52 PM 55.9 °F 54.0 °F 93% 30.08 in 2.0 mi East 8.1 mph - 0.00 in   Overcast